DLH4PH EDDF-EGLL

Flight info

Callsign DLH4PH
Flight time 1h 11m
Altitude 38000
Route OBOKA3W/25C OBOKA Z29 TORNU DCT ABNED L980 LOGAN
Aircraft A320/M-SDE2E3FGIJ1LORWXYZ/HB1

Departure

Time 2026-05-06 17:32
Airport Frankfurt Main Airport (EDDF)

Arrival

Time 2026-05-06 18:44
Airport London Heathrow Airport (EGLL)
Time Latitude Longitude Altitude Speed Heading
2026-05-06 17:01 50.04735 8.56736 359 ft 0 kts 117°
2026-05-06 17:14 50.04738 8.56726 358 ft 2 kts 118°
2026-05-06 17:14 50.04747 8.56704 358 ft 2 kts 124°
2026-05-06 17:15 50.04757 8.56683 359 ft 2 kts 139°
2026-05-06 17:15 50.04771 8.56670 357 ft 2 kts 190°
2026-05-06 17:15 50.04784 8.56677 357 ft 1 kts 206°
2026-05-06 17:15 50.04785 8.56678 356 ft 0 kts 205°
2026-05-06 17:18 50.04771 8.56667 358 ft 4 kts 208°
2026-05-06 17:18 50.04746 8.56636 355 ft 4 kts 225°
2026-05-06 17:18 50.04714 8.56576 356 ft 12 kts 228°
2026-05-06 17:18 50.04645 8.56508 357 ft 11 kts 207°
2026-05-06 17:19 50.04585 8.56464 353 ft 8 kts 204°
2026-05-06 17:19 50.04540 8.56429 352 ft 6 kts 217°
2026-05-06 17:19 50.04517 8.56385 353 ft 5 kts 244°
2026-05-06 17:19 50.04494 8.56295 356 ft 12 kts 250°
2026-05-06 17:20 50.04465 8.56172 354 ft 13 kts 250°
2026-05-06 17:20 50.04423 8.56044 356 ft 14 kts 221°
2026-05-06 17:20 50.04346 8.56054 357 ft 0 kts 159°
2026-05-06 17:22 50.04341 8.56057 357 ft 4 kts 159°
2026-05-06 17:23 50.04301 8.56109 354 ft 11 kts 120°
2026-05-06 17:23 50.04257 8.56203 355 ft 10 kts 141°
2026-05-06 17:23 50.04204 8.56265 350 ft 9 kts 149°
2026-05-06 17:23 50.04155 8.56308 353 ft 9 kts 131°
2026-05-06 17:24 50.04163 8.56426 355 ft 11 kts 70°
2026-05-06 17:24 50.04189 8.56534 354 ft 10 kts 69°
2026-05-06 17:24 50.04213 8.56635 358 ft 13 kts 70°
2026-05-06 17:24 50.04251 8.56801 353 ft 17 kts 69°
2026-05-06 17:25 50.04295 8.56978 359 ft 18 kts 69°
2026-05-06 17:25 50.04338 8.57160 352 ft 18 kts 70°
2026-05-06 17:25 50.04383 8.57347 351 ft 19 kts 70°
2026-05-06 17:25 50.04430 8.57546 358 ft 20 kts 69°
2026-05-06 17:26 50.04481 8.57761 353 ft 22 kts 70°
2026-05-06 17:26 50.04536 8.57993 357 ft 22 kts 70°
2026-05-06 17:26 50.04572 8.58143 359 ft 14 kts 70°
2026-05-06 17:26 50.04603 8.58276 357 ft 12 kts 70°
2026-05-06 17:27 50.04631 8.58393 355 ft 11 kts 69°
2026-05-06 17:27 50.04644 8.58444 359 ft 0 kts 68°
2026-05-06 17:28 50.04646 8.58451 358 ft 4 kts 68°
2026-05-06 17:29 50.04650 8.58520 351 ft 8 kts 103°
2026-05-06 17:29 50.04620 8.58572 354 ft 5 kts 153°
2026-05-06 17:29 50.04597 8.58587 358 ft 2 kts 159°
2026-05-06 17:29 50.04596 8.58587 358 ft 0 kts 159°
2026-05-06 17:30 50.04572 8.58601 358 ft 3 kts 159°
2026-05-06 17:31 50.04555 8.58611 359 ft 8 kts 163°
2026-05-06 17:31 50.04397 8.58375 363 ft 71 kts 249°
2026-05-06 17:31 50.04183 8.57310 362 ft 132 kts 252°
2026-05-06 17:31 50.03828 8.55752 528 ft 167 kts 252°
2026-05-06 17:32 50.03416 8.53920 952 ft 190 kts 253°
2026-05-06 17:32 50.02937 8.51850 1441 ft 217 kts 250°
2026-05-06 17:32 50.02217 8.49804 2519 ft 210 kts 230°
2026-05-06 17:32 50.01085 8.48439 3601 ft 207 kts 206°
2026-05-06 17:33 49.99684 8.47882 4524 ft 211 kts 190°
2026-05-06 17:33 49.98225 8.47566 4875 ft 210 kts 190°
2026-05-06 17:33 49.96783 8.47251 4984 ft 209 kts 190°
2026-05-06 17:33 49.95350 8.46745 5009 ft 223 kts 198°
2026-05-06 17:34 49.93810 8.46030 5007 ft 236 kts 198°
2026-05-06 17:34 49.92280 8.45066 5209 ft 240 kts 213°
2026-05-06 17:34 49.90998 8.43413 6227 ft 241 kts 229°
2026-05-06 17:34 49.90045 8.41278 7183 ft 243 kts 238°
2026-05-06 17:35 49.89183 8.38998 8121 ft 247 kts 244°
2026-05-06 17:35 49.88667 8.36439 8984 ft 256 kts 260°
2026-05-06 17:35 49.88665 8.33565 9545 ft 275 kts 274°
2026-05-06 17:36 49.89213 8.27316 10492 ft 315 kts 287°
2026-05-06 17:36 49.90173 8.24278 11197 ft 326 kts 302°
2026-05-06 17:36 49.91529 8.21414 12011 ft 331 kts 304°
2026-05-06 17:36 49.92907 8.18521 12648 ft 335 kts 304°
2026-05-06 17:37 49.94393 8.15705 13348 ft 340 kts 313°
2026-05-06 17:37 49.96189 8.13211 14105 ft 345 kts 317°
2026-05-06 17:37 49.98024 8.10758 14818 ft 349 kts 317°
2026-05-06 17:37 49.99857 8.08314 15513 ft 353 kts 317°
2026-05-06 17:38 50.01730 8.05816 16223 ft 357 kts 317°
2026-05-06 17:38 50.03616 8.03298 16938 ft 360 kts 317°
2026-05-06 17:38 50.05526 8.00738 17642 ft 364 kts 317°
2026-05-06 17:38 50.07451 7.98153 18313 ft 367 kts 317°
2026-05-06 17:39 50.09396 7.95540 18934 ft 371 kts 317°
2026-05-06 17:39 50.11354 7.92908 19549 ft 374 kts 317°
2026-05-06 17:39 50.13331 7.90250 20151 ft 377 kts 317°
2026-05-06 17:39 50.15324 7.87564 20747 ft 380 kts 317°
2026-05-06 17:40 50.17334 7.84849 21337 ft 384 kts 317°
2026-05-06 17:40 50.19352 7.82117 21921 ft 387 kts 317°
2026-05-06 17:40 50.21397 7.79344 22484 ft 391 kts 317°
2026-05-06 17:40 50.23463 7.76540 23046 ft 394 kts 317°
2026-05-06 17:41 50.24914 7.74731 23401 ft 398 kts 323°
2026-05-06 17:41 50.27316 7.72533 23847 ft 403 kts 333°
2026-05-06 17:41 50.29892 7.70762 24293 ft 406 kts 335°
2026-05-06 17:41 50.32488 7.68997 24734 ft 410 kts 335°
2026-05-06 17:42 50.35118 7.67208 25163 ft 413 kts 335°
2026-05-06 17:42 50.37757 7.65403 25602 ft 416 kts 335°
2026-05-06 17:42 50.40420 7.63577 26035 ft 419 kts 335°
2026-05-06 17:42 50.43101 7.61738 26459 ft 422 kts 335°
2026-05-06 17:43 50.45803 7.59877 26882 ft 425 kts 335°
2026-05-06 17:43 50.48520 7.58002 27296 ft 428 kts 335°
2026-05-06 17:43 50.51217 7.56142 27704 ft 431 kts 335°
2026-05-06 17:43 50.53973 7.54239 28124 ft 434 kts 335°
2026-05-06 17:44 50.56664 7.52092 28521 ft 435 kts 327°
2026-05-06 17:44 50.59215 7.49499 28925 ft 438 kts 325°
2026-05-06 17:44 50.61779 7.46869 29336 ft 440 kts 326°
2026-05-06 17:44 50.64350 7.44237 29753 ft 443 kts 326°
2026-05-06 17:45 50.66939 7.41589 30125 ft 445 kts 326°
2026-05-06 17:45 50.69578 7.38883 30487 ft 447 kts 326°
2026-05-06 17:45 50.72054 7.36041 30818 ft 447 kts 317°
2026-05-06 17:45 50.74259 7.32583 31138 ft 447 kts 308°
2026-05-06 17:46 50.76099 7.28647 31443 ft 447 kts 300°
2026-05-06 17:46 50.77577 7.24331 31844 ft 445 kts 295°
2026-05-06 17:46 50.78980 7.19991 32293 ft 443 kts 295°
2026-05-06 17:46 50.80389 7.15654 32739 ft 442 kts 295°
2026-05-06 17:47 50.81797 7.11340 33178 ft 441 kts 295°
2026-05-06 17:47 50.83207 7.07014 33617 ft 440 kts 295°
2026-05-06 17:47 50.84603 7.02707 34045 ft 439 kts 295°
2026-05-06 17:47 50.85990 6.98419 34403 ft 439 kts 294°
2026-05-06 17:48 50.87380 6.94116 34732 ft 438 kts 294°
2026-05-06 17:48 50.88766 6.89819 35063 ft 438 kts 294°
2026-05-06 17:48 50.90148 6.85524 35381 ft 437 kts 294°
2026-05-06 17:48 50.91526 6.81235 35678 ft 437 kts 294°
2026-05-06 17:49 50.92903 6.76935 35970 ft 437 kts 294°
2026-05-06 17:49 50.94277 6.72637 36262 ft 437 kts 294°
2026-05-06 17:49 50.95648 6.68339 36552 ft 436 kts 294°
2026-05-06 17:49 50.97014 6.64046 36833 ft 436 kts 294°
2026-05-06 17:50 50.98378 6.59750 37110 ft 436 kts 294°
2026-05-06 17:50 50.99742 6.55453 37377 ft 436 kts 294°
2026-05-06 17:50 51.01106 6.51157 37646 ft 435 kts 294°
2026-05-06 17:50 51.02459 6.46889 37844 ft 436 kts 294°
2026-05-06 17:51 51.05169 6.38295 37884 ft 434 kts 294°
2026-05-06 17:51 51.07860 6.29725 37886 ft 433 kts 294°
2026-05-06 17:52 51.10548 6.21162 37899 ft 433 kts 294°
2026-05-06 17:52 51.13209 6.12636 37889 ft 432 kts 293°
2026-05-06 17:53 51.15071 6.03554 37909 ft 429 kts 282°
2026-05-06 17:53 51.16560 5.94357 37902 ft 429 kts 282°
2026-05-06 17:54 51.18043 5.85220 37903 ft 429 kts 283°
2026-05-06 17:54 51.20210 5.76321 37909 ft 431 kts 290°
2026-05-06 17:55 51.22547 5.67495 37916 ft 431 kts 290°
2026-05-06 17:55 51.24866 5.58671 37929 ft 432 kts 290°
2026-05-06 17:56 51.27176 5.49829 37932 ft 431 kts 290°
2026-05-06 17:56 51.29482 5.40992 37938 ft 431 kts 290°
2026-05-06 17:57 51.31787 5.32135 37943 ft 431 kts 290°
2026-05-06 17:57 51.34077 5.23290 37939 ft 431 kts 290°
2026-05-06 17:58 51.36357 5.14433 37936 ft 431 kts 290°
2026-05-06 17:58 51.38627 5.05554 37935 ft 431 kts 290°
2026-05-06 17:59 51.40900 4.96682 37941 ft 431 kts 290°
2026-05-06 17:59 51.43163 4.87802 37941 ft 430 kts 290°
2026-05-06 18:00 51.45420 4.78917 37956 ft 430 kts 290°
2026-05-06 18:00 51.47671 4.70025 37946 ft 430 kts 290°
2026-05-06 18:01 51.49916 4.61135 37948 ft 429 kts 290°
2026-05-06 18:01 51.52138 4.52252 37941 ft 429 kts 290°
2026-05-06 18:02 51.54356 4.43350 37936 ft 429 kts 290°
2026-05-06 18:02 51.56569 4.34461 37937 ft 428 kts 290°
2026-05-06 18:03 51.58780 4.25566 37944 ft 428 kts 290°
2026-05-06 18:03 51.60982 4.16658 37939 ft 428 kts 290°
2026-05-06 18:04 51.63164 4.07758 37938 ft 428 kts 290°
2026-05-06 18:04 51.65347 3.98845 37932 ft 428 kts 290°
2026-05-06 18:05 51.67520 3.89950 37936 ft 427 kts 290°
2026-05-06 18:05 51.69685 3.81044 37943 ft 427 kts 289°
2026-05-06 18:06 51.71835 3.72132 37948 ft 426 kts 289°
2026-05-06 18:06 51.73976 3.63230 37948 ft 425 kts 289°
2026-05-06 18:07 51.76105 3.54336 37953 ft 425 kts 289°
2026-05-06 18:07 51.78237 3.45429 37957 ft 425 kts 289°
2026-05-06 18:08 51.80358 3.36534 37962 ft 424 kts 289°
2026-05-06 18:08 51.82463 3.27627 37970 ft 424 kts 289°
2026-05-06 18:09 51.84302 3.18607 37971 ft 421 kts 278°
2026-05-06 18:09 51.84413 3.09227 37958 ft 418 kts 263°
2026-05-06 18:10 51.84101 3.04527 37378 ft 423 kts 263°
2026-05-06 18:10 51.83790 2.99796 36721 ft 423 kts 263°
2026-05-06 18:10 51.83483 2.95087 36203 ft 420 kts 264°
2026-05-06 18:10 51.83177 2.90409 35791 ft 417 kts 264°
2026-05-06 18:11 51.82872 2.85766 35392 ft 414 kts 264°
2026-05-06 18:11 51.82565 2.81153 35002 ft 410 kts 264°
2026-05-06 18:11 51.82258 2.76592 34617 ft 407 kts 264°
2026-05-06 18:11 51.81952 2.72067 34239 ft 403 kts 264°
2026-05-06 18:12 51.81648 2.67577 33845 ft 400 kts 264°
2026-05-06 18:12 51.81345 2.63137 33399 ft 397 kts 264°
2026-05-06 18:12 51.81040 2.58711 32954 ft 394 kts 264°
2026-05-06 18:12 51.80740 2.54386 32528 ft 391 kts 264°
2026-05-06 18:13 51.80438 2.50050 32118 ft 388 kts 263°
2026-05-06 18:13 51.80134 2.45732 31687 ft 385 kts 263°
2026-05-06 18:13 51.79831 2.41453 31278 ft 382 kts 263°
2026-05-06 18:13 51.79531 2.37201 30873 ft 380 kts 263°
2026-05-06 18:14 51.79230 2.32982 30467 ft 377 kts 263°
2026-05-06 18:14 51.78926 2.28786 30079 ft 375 kts 263°
2026-05-06 18:14 51.78623 2.24620 29623 ft 372 kts 263°
2026-05-06 18:14 51.78328 2.20481 29164 ft 370 kts 264°
2026-05-06 18:15 51.78068 2.16365 28720 ft 367 kts 264°
2026-05-06 18:15 51.77834 2.12267 28269 ft 365 kts 265°
2026-05-06 18:15 51.77610 2.08206 27836 ft 362 kts 265°
2026-05-06 18:15 51.77384 2.04166 27408 ft 360 kts 265°
2026-05-06 18:16 51.77155 2.00159 26985 ft 357 kts 264°
2026-05-06 18:16 51.76920 1.96175 26562 ft 355 kts 264°
2026-05-06 18:16 51.76682 1.92230 26159 ft 353 kts 264°
2026-05-06 18:16 51.76444 1.88303 25756 ft 350 kts 264°
2026-05-06 18:17 51.76206 1.84391 25369 ft 348 kts 264°
2026-05-06 18:17 51.75968 1.80511 24961 ft 346 kts 264°
2026-05-06 18:17 51.75730 1.76658 24573 ft 344 kts 264°
2026-05-06 18:17 51.75493 1.72830 24192 ft 342 kts 264°
2026-05-06 18:18 51.75255 1.69023 23810 ft 340 kts 264°
2026-05-06 18:18 51.75017 1.65236 23417 ft 338 kts 264°
2026-05-06 18:18 51.74779 1.61472 22973 ft 336 kts 264°
2026-05-06 18:18 51.74543 1.57735 22535 ft 334 kts 264°
2026-05-06 18:19 51.74307 1.54020 22103 ft 332 kts 264°
2026-05-06 18:19 51.74070 1.50333 21667 ft 330 kts 264°
2026-05-06 18:19 51.73834 1.46660 21257 ft 328 kts 264°
2026-05-06 18:19 51.73600 1.43014 20841 ft 326 kts 264°
2026-05-06 18:20 51.73365 1.39391 20434 ft 324 kts 264°
2026-05-06 18:20 51.73129 1.35790 20029 ft 322 kts 264°
2026-05-06 18:20 51.72895 1.32213 19630 ft 320 kts 264°
2026-05-06 18:20 51.72661 1.28649 19239 ft 319 kts 264°
2026-05-06 18:21 51.72425 1.25101 18847 ft 317 kts 264°
2026-05-06 18:21 51.72190 1.21575 18466 ft 316 kts 264°
2026-05-06 18:21 51.71956 1.18069 18058 ft 314 kts 264°
2026-05-06 18:21 51.71721 1.14571 17624 ft 313 kts 264°
2026-05-06 18:22 51.71486 1.11080 17192 ft 313 kts 264°
2026-05-06 18:22 51.71253 1.07602 16773 ft 312 kts 264°
2026-05-06 18:22 51.71019 1.04123 16352 ft 312 kts 264°
2026-05-06 18:22 51.70782 1.00659 15941 ft 311 kts 264°
2026-05-06 18:23 51.70541 0.97186 15529 ft 311 kts 264°
2026-05-06 18:23 51.70302 0.93728 15138 ft 311 kts 264°
2026-05-06 18:23 51.70062 0.90263 14739 ft 311 kts 264°
2026-05-06 18:23 51.69823 0.86801 14348 ft 310 kts 265°
2026-05-06 18:24 51.69584 0.83349 13965 ft 310 kts 264°
2026-05-06 18:24 51.69425 0.81066 13694 ft 309 kts 264°
2026-05-06 18:24 51.69186 0.77683 13256 ft 299 kts 264°
2026-05-06 18:24 51.68951 0.74389 12832 ft 294 kts 264°
2026-05-06 18:25 51.68720 0.71130 12412 ft 292 kts 264°
2026-05-06 18:25 51.68490 0.67876 12002 ft 293 kts 264°
2026-05-06 18:25 51.68257 0.64620 11591 ft 293 kts 264°
2026-05-06 18:25 51.68023 0.61387 11310 ft 288 kts 264°
2026-05-06 18:26 51.67790 0.58207 11000 ft 285 kts 264°
2026-05-06 18:26 51.67560 0.55044 10658 ft 283 kts 264°
2026-05-06 18:26 51.67332 0.51900 10318 ft 282 kts 264°
2026-05-06 18:26 51.67105 0.48772 9972 ft 280 kts 264°
2026-05-06 18:27 51.66878 0.45668 9578 ft 279 kts 264°
2026-05-06 18:27 51.66649 0.42569 9201 ft 278 kts 264°
2026-05-06 18:27 51.66420 0.39485 8801 ft 276 kts 264°
2026-05-06 18:27 51.66194 0.36422 8396 ft 275 kts 264°
2026-05-06 18:28 51.65967 0.33377 8025 ft 273 kts 264°
2026-05-06 18:28 51.65740 0.30328 7997 ft 275 kts 264°
2026-05-06 18:28 51.65512 0.27264 8000 ft 276 kts 264°
2026-05-06 18:28 51.65281 0.24199 8002 ft 276 kts 264°
2026-05-06 18:29 51.65055 0.21208 7998 ft 260 kts 264°
2026-05-06 18:29 51.64844 0.18407 7996 ft 247 kts 264°
2026-05-06 18:29 51.64637 0.15668 8000 ft 244 kts 264°
2026-05-06 18:29 51.64450 0.12961 8001 ft 244 kts 265°
2026-05-06 18:30 51.64296 0.10171 7998 ft 263 kts 266°
2026-05-06 18:30 51.64155 0.07162 8004 ft 274 kts 266°
2026-05-06 18:30 51.64015 0.04075 8003 ft 277 kts 266°
2026-05-06 18:30 51.63876 0.00979 8002 ft 277 kts 266°
2026-05-06 18:31 51.63738 -0.02115 8004 ft 278 kts 266°
2026-05-06 18:31 51.63599 -0.05221 8001 ft 278 kts 266°
2026-05-06 18:31 51.63457 -0.08321 8049 ft 278 kts 266°
2026-05-06 18:31 51.63313 -0.11378 8052 ft 278 kts 266°
2026-05-06 18:32 51.63165 -0.14462 8053 ft 277 kts 266°
2026-05-06 18:32 51.63013 -0.17554 8000 ft 276 kts 266°
2026-05-06 18:32 51.62863 -0.20582 7817 ft 264 kts 266°
2026-05-06 18:32 51.62720 -0.23422 7608 ft 246 kts 266°
2026-05-06 18:33 51.62583 -0.26146 7249 ft 243 kts 266°
2026-05-06 18:33 51.62448 -0.28843 7077 ft 241 kts 266°
2026-05-06 18:33 51.62313 -0.31521 7054 ft 241 kts 266°
2026-05-06 18:33 51.62175 -0.34216 7001 ft 241 kts 266°
2026-05-06 18:34 51.62036 -0.36906 6999 ft 241 kts 266°
2026-05-06 18:34 51.61891 -0.39593 6999 ft 241 kts 266°
2026-05-06 18:34 51.61742 -0.42282 7006 ft 241 kts 266°
2026-05-06 18:34 51.61591 -0.44963 7001 ft 240 kts 266°
2026-05-06 18:35 51.61436 -0.47639 7003 ft 240 kts 266°
2026-05-06 18:35 51.61277 -0.50316 7001 ft 240 kts 266°
2026-05-06 18:35 51.61116 -0.52985 7002 ft 240 kts 266°
2026-05-06 18:35 51.60759 -0.55602 7007 ft 241 kts 253°
2026-05-06 18:36 51.60193 -0.58145 7000 ft 242 kts 251°
2026-05-06 18:36 51.59608 -0.60638 6964 ft 240 kts 251°
2026-05-06 18:36 51.59016 -0.63145 6668 ft 240 kts 251°
2026-05-06 18:36 51.58418 -0.65689 6357 ft 240 kts 251°
2026-05-06 18:37 51.57841 -0.68157 6053 ft 238 kts 251°
2026-05-06 18:37 51.57071 -0.70500 5776 ft 238 kts 231°
2026-05-06 18:37 51.55957 -0.72419 5618 ft 230 kts 226°
2026-05-06 18:37 51.54851 -0.74186 5500 ft 220 kts 226°
2026-05-06 18:38 51.53776 -0.75886 5376 ft 213 kts 226°
2026-05-06 18:38 51.52751 -0.77496 5235 ft 200 kts 226°
2026-05-06 18:38 51.51729 -0.78962 4961 ft 197 kts 212°
2026-05-06 18:38 51.50390 -0.79459 4630 ft 197 kts 176°
2026-05-06 18:39 51.49106 -0.78887 4224 ft 197 kts 150°
2026-05-06 18:39 51.48097 -0.77420 3745 ft 196 kts 121°
2026-05-06 18:39 51.47634 -0.75434 3465 ft 188 kts 94°
2026-05-06 18:40 51.47631 -0.71296 2958 ft 185 kts 86°
2026-05-06 18:40 51.47645 -0.69240 2704 ft 184 kts 86°
2026-05-06 18:40 51.47657 -0.67195 2449 ft 183 kts 86°
2026-05-06 18:40 51.47668 -0.65153 2197 ft 182 kts 86°
2026-05-06 18:41 51.47679 -0.63118 1949 ft 183 kts 86°
2026-05-06 18:41 51.47690 -0.61082 1698 ft 182 kts 86°
2026-05-06 18:41 51.47700 -0.59066 1451 ft 175 kts 87°
2026-05-06 18:41 51.47707 -0.57229 1215 ft 155 kts 85°
2026-05-06 18:42 51.47715 -0.55584 1002 ft 141 kts 86°
2026-05-06 18:42 51.47727 -0.54048 803 ft 135 kts 84°
2026-05-06 18:42 51.47734 -0.52560 601 ft 131 kts 89°
2026-05-06 18:42 51.47729 -0.51106 456 ft 130 kts 85°
2026-05-06 18:43 51.47741 -0.49658 273 ft 129 kts 86°
2026-05-06 18:43 51.47750 -0.48223 140 ft 129 kts 87°
2026-05-06 18:43 51.47751 -0.46844 93 ft 115 kts 89°
2026-05-06 18:43 51.47761 -0.45815 82 ft 66 kts 89°
2026-05-06 18:44 51.47759 -0.45302 88 ft 33 kts 91°
2026-05-06 18:44 51.47652 -0.45176 89 ft 0 kts 178°
2026-05-06 18:44 51.47647 -0.45176 89 ft 3 kts 178°
2026-05-06 18:45 51.47598 -0.45175 88 ft 10 kts 180°
2026-05-06 18:45 51.47532 -0.45146 89 ft 9 kts 142°
2026-05-06 18:45 51.47508 -0.45064 90 ft 8 kts 98°
2026-05-06 18:45 51.47508 -0.44980 92 ft 9 kts 89°
2026-05-06 18:46 51.47508 -0.44844 86 ft 16 kts 89°
2026-05-06 18:46 51.47508 -0.44659 90 ft 9 kts 97°
2026-05-06 18:46 51.47486 -0.44579 89 ft 8 kts 135°
2026-05-06 18:46 51.47432 -0.44559 87 ft 9 kts 177°
2026-05-06 18:47 51.47364 -0.44557 85 ft 10 kts 179°
2026-05-06 18:47 51.47284 -0.44555 85 ft 14 kts 180°
2026-05-06 18:47 51.47176 -0.44555 85 ft 16 kts 180°
2026-05-06 18:47 51.47079 -0.44556 82 ft 2 kts 179°
2026-05-06 18:48 51.47081 -0.44556 81 ft 0 kts 178°